QPF
0.00 0.00 0.00 0.00 0.00 0.00 0.01 0.01 0.02 0.02 0.02 0.02 0.01 0.00 0.00 0.00 0.03 0.14 0.34 0.20 0.13 0.11 0.02 0.00 0.00 0.00 0.00 0.00 0.00 0.00 0.00 0.00 0.00 0.00 0.00 0.00 0.00 0.00 0.00 0.00 0.04 0.13 0.11 0.03 0.02 0.02 0.00 0.00 0.00 0.00 0.00 0.00 0.00 0.00
0.00 0.00 0.00 0.00 0.01 0.01 0.01 0.01 0.01 0.01 0.02 0.02 0.03 0.02 0.01 0.00 0.01 0.09 0.39 0.46 0.10 0.09 0.05 0.00 0.00 0.00 0.00 0.00 0.00 0.00 0.00 0.00 0.00 0.00 0.00 0.00 0.00 0.00 0.00 0.00 0.00 0.02 0.05 0.03 0.00 0.01 0.00 0.00 0.00 0.00 0.00 0.00 0.00 0.00
0.00 0.00 0.01 0.01 0.01 0.00 0.01 0.01 0.01 0.02 0.02 0.01 0.02 0.05 0.03 0.01 0.01 0.07 0.27 0.37 0.27 0.26 0.17 0.03 0.01 0.00 0.00 0.00 0.00 0.00 0.00 0.00 0.00 0.00 0.00 0.01 0.01 0.00 0.00 0.00 0.00 0.00 0.00 0.01 0.00 0.00 0.00 0.00 0.01 0.00 0.00 0.00 0.00 0.00
0.01 0.03 0.02 0.01 0.01 0.02 0.01 0.00 0.00 0.01 0.02 0.01 0.01 0.02 0.05 0.04 0.03 0.07 0.20 0.18 0.31 0.38 0.20 0.04 0.00 0.00 0.00 0.00 0.00 0.00 0.00 0.00 0.02 0.00 0.00 0.01 0.01 0.01 0.00 0.00 0.00 0.00 0.00 0.00 0.00 0.00 0.00 0.00 0.00 0.01 0.00 0.00 0.00 0.00
0.05 0.04 0.01 0.01 0.02 0.01 0.01 0.02 0.02 0.02 0.03 0.03 0.02 0.02 0.06 0.11 0.08 0.04 0.03 0.06 0.25 0.13 0.08 0.01 0.00 0.00 0.00 0.00 0.01 0.02 0.01 0.04 0.03 0.03 0.01 0.00 0.00 0.02 0.02 0.01 0.00 0.00 0.00 0.00 0.00 0.00 0.00 0.00 0.00 0.00 0.00 0.00 0.00 0.00
0.07 0.00 0.01 0.01 0.01 0.02 0.03 0.06 0.07 0.09 0.06 0.04 0.07 0.10 0.13 0.18 0.23 0.08 0.10 0.18 0.21 0.11 0.06 0.01 0.00 0.00 0.01 0.01 0.03 0.01 0.01 0.03 0.03 0.01 0.01 0.01 0.02 0.02 0.03 0.01 0.00 0.00 0.00 0.00 0.00 0.00 0.00 0.00 0.00 0.00 0.00 0.00 0.00 0.00
0.01 0.00 0.00 0.01 0.01 0.01 0.01 0.03 0.05 0.06 0.07 0.08 0.09 0.13 0.17 0.24 0.20 0.05 0.06 0.09 0.20 0.20 0.05 0.02 0.01 0.02 0.05 0.02 0.03 0.03 0.02 0.01 0.01 0.02 0.01 0.01 0.02 0.05 0.04 0.02 0.00 0.00 0.00 0.00 0.00 0.00 0.00 0.00 0.00 0.00 0.00 0.00 0.00 0.00
0.01 0.00 0.00 0.00 0.00 0.00 0.00 0.01 0.04 0.06 0.05 0.05 0.09 0.12 0.16 0.12 0.08 0.03 0.00 0.01 0.16 0.23 0.03 0.02 0.03 0.02 0.02 0.02 0.01 0.01 0.01 0.01 0.00 0.00 0.00 0.01 0.02 0.07 0.12 0.02 0.00 0.00 0.01 0.00 0.00 0.00 0.00 0.00 0.00 0.00 0.00 0.00 0.00 0.00
0.00 0.01 0.02 0.01 0.01 0.00 0.01 0.03 0.03 0.03 0.04 0.09 0.14 0.15 0.11 0.13 0.17 0.04 0.03 0.09 0.08 0.03 0.01 0.00 0.01 0.03 0.01 0.01 0.01 0.00 0.00 0.00 0.00 0.00 0.00 0.02 0.01 0.06 0.06 0.07 0.07 0.01 0.00 0.00 0.00 0.00 0.01 0.01 0.00 0.00 0.00 0.00 0.00 0.00
0.06 0.05 0.09 0.15 0.13 0.06 0.03 0.04 0.05 0.07 0.13 0.14 0.11 0.13 0.34 0.35 0.11 0.18 0.21 0.18 0.05 0.00 0.00 0.00 0.00 0.00 0.00 0.00 0.00 0.00 0.00 0.00 0.00 0.00 0.01 0.00 0.00 0.04 0.06 0.04 0.04 0.01 0.00 0.00 0.00 0.00 0.00 0.00 0.00 0.00 0.00 0.00 0.00 0.00
0.04 0.03 0.03 0.06 0.12 0.18 0.16 0.12 0.08 0.05 0.03 0.01 0.09 0.38 0.49 0.19 0.08 0.09 0.09 0.04 0.02 0.00 0.00 0.00 0.00 0.00 0.00 0.00 0.00 0.00 0.01 0.01 0.01 0.00 0.00 0.00 0.01 0.01 0.09 0.11 0.05 0.03 0.02 0.01 0.00 0.00 0.00 0.00 0.00 0.00 0.00 0.00 0.00 0.00
0.04 0.04 0.04 0.03 0.03 0.04 0.04 0.03 0.01 0.00 0.00 0.01 0.03 0.03 0.02 0.01 0.00 0.00 0.00 0.00 0.00 0.00 0.00 0.00 0.00 0.00 0.00 0.00 0.00 0.01 0.04 0.02 0.01 0.00 0.02 0.01 0.11 0.11 0.05 0.08 0.06 0.04 0.04 0.03 0.01 0.01 0.01 0.00 0.00 0.00 0.00 0.00 0.00 0.00
0.01 0.01 0.00 0.00 0.00 0.00 0.00 0.00 0.00 0.00 0.00 0.00 0.00 0.00 0.00 0.00 0.00 0.00 0.00 0.00 0.00 0.00 0.00 0.00 0.00 0.00 0.00 0.00 0.00 0.13 0.11 0.00 0.03 0.03 0.03 0.03 0.03 0.12 0.08 0.09 0.12 0.03 0.02 0.01 0.00 0.00 0.00 0.00 0.00 0.00 0.00 0.00 0.00 0.00
0.00 0.00 0.00 0.00 0.00 0.00 0.00 0.00 0.00 0.00 0.00 0.00 0.00 0.00 0.00 0.01 0.02 0.03 0.02 0.01 0.01 0.00 0.00 0.00 0.00 0.00 0.00 0.00 0.02 0.06 0.10 0.08 0.04 0.04 0.02 0.02 0.01 0.02 0.05 0.04 0.08 0.02 0.01 0.00 0.00 0.00 0.00 0.00 0.01 0.04 0.06 0.06 0.03 0.03
0.00 0.00 0.00 0.00 0.00 0.00 0.00 0.00 0.00 0.00 0.00 0.00 0.00 0.00 0.02 0.05 0.04 0.04 0.02 0.02 0.01 0.00 0.00 0.00 0.01 0.02 0.08 0.16 0.16 0.21 0.15 0.11 0.08 0.05 0.05 0.04 0.02 0.02 0.02 0.02 0.01 0.01 0.01 0.01 0.02 0.03 0.05 0.06 0.07 0.11 0.13 0.11 0.06 0.06
0.00 0.00 0.00 0.00 0.00 0.00 0.00 0.00 0.00 0.00 0.00 0.00 0.00 0.01 0.01 0.03 0.02 0.01 0.02 0.06 0.03 0.01 0.02 0.10 0.06 0.08 0.15 0.17 0.13 0.15 0.08 0.04 0.04 0.04 0.05 0.03 0.03 0.03 0.03 0.03 0.04 0.05 0.05 0.06 0.08 0.10 0.12 0.11 0.09 0.10 0.10 0.09 0.08 0.06
0.00 0.00 0.00 0.00 0.00 0.00 0.00 0.00 0.00 0.00 0.00 0.00 0.01 0.01 0.01 0.01 0.01 0.02 0.05 0.10 0.04 0.04 0.05 0.07 0.04 0.02 0.03 0.01 0.01 0.02 0.03 0.04 0.06 0.05 0.05 0.04 0.04 0.05 0.04 0.05 0.06 0.07 0.09 0.09 0.11 0.11 0.12 0.11 0.08 0.05 0.07 0.08 0.05 0.03
0.00 0.00 0.00 0.00 0.00 0.00 0.00 0.00 0.00 0.00 0.00 0.00 0.01 0.02 0.01 0.01 0.01 0.01 0.03 0.07 0.12 0.05 0.00 0.01 0.00 0.00 0.00 0.00 0.02 0.05 0.03 0.03 0.03 0.04 0.06 0.06 0.06 0.08 0.07 0.07 0.09 0.09 0.10 0.12 0.11 0.11 0.10 0.07 0.04 0.04 0.03 0.03 0.01 0.01
0.00 0.00 0.00 0.00 0.00 0.00 0.00 0.00 0.00 0.00 0.00 0.00 0.01 0.00 0.00 0.01 0.01 0.01 0.02 0.05 0.03 0.00 0.00 0.00 0.00 0.00 0.01 0.01 0.02 0.05 0.02 0.02 0.02 0.04 0.06 0.09 0.11 0.12 0.12 0.10 0.10 0.10 0.09 0.09 0.07 0.06 0.06 0.05 0.03 0.01 0.00 0.00 0.00 0.00
0.00 0.00 0.00 0.00 0.00 0.00 0.00 0.00 0.00 0.00 0.00 0.00 0.00 0.00 0.00 0.01 0.00 0.00 0.00 0.00 0.00 0.00 0.00 0.00 0.01 0.02 0.02 0.02 0.04 0.04 0.02 0.03 0.01 0.02 0.06 0.10 0.14 0.12 0.13 0.11 0.11 0.10 0.08 0.07 0.06 0.04 0.03 0.02 0.01 0.00 0.00 0.00 0.00 0.00
0.00 0.00 0.00 0.00 0.00 0.00 0.01 0.01 0.00 0.00 0.02 0.01 0.02 0.01 0.00 0.00 0.00 0.00 0.00 0.00 0.00 0.00 0.01 0.02 0.02 0.03 0.04 0.05 0.04 0.01 0.02 0.01 0.02 0.02 0.04 0.08 0.12 0.10 0.10 0.10 0.08 0.06 0.05 0.04 0.03 0.02 0.01 0.00 0.00 0.00 0.00 0.00 0.00 0.00
0.00 0.00 0.00 0.00 0.00 0.00 0.02 0.03 0.01 0.01 0.00 0.02 0.02 0.01 0.00 0.00 0.00 0.00 0.00 0.00 0.01 0.02 0.02 0.02 0.02 0.02 0.03 0.04 0.05 0.05 0.05 0.03 0.05 0.05 0.07 0.07 0.08 0.08 0.08 0.08 0.05 0.04 0.03 0.02 0.01 0.00 0.00 0.00 0.00 0.00 0.00 0.00 0.00 0.00
0.00 0.00 0.00 0.00 0.00 0.00 0.02 0.03 0.03 0.05 0.05 0.05 0.03 0.02 0.01 0.01 0.00 0.00 0.00 0.02 0.04 0.05 0.03 0.03 0.03 0.03 0.03 0.05 0.05 0.06 0.07 0.04 0.06 0.08 0.09 0.09 0.08 0.08 0.06 0.06 0.04 0.02 0.01 0.00 0.00 0.00 0.00 0.00 0.00 0.00 0.00 0.00 0.00 0.00
0.00 0.00 0.00 0.00 0.00 0.00 0.00 0.00 0.00 0.00 0.00 0.00 0.00 0.01 0.02 0.01 0.00 0.00 0.01 0.03 0.04 0.04 0.03 0.03 0.02 0.03 0.03 0.03 0.04 0.05 0.07 0.06 0.05 0.06 0.08 0.06 0.05 0.06 0.04 0.01 0.00 0.00 0.00 0.00 0.00 0.00 0.00 0.00 0.00 0.00 0.00 0.00 0.00 0.00
0.00 0.00 0.00 0.00 0.00 0.00 0.00 0.00 0.00 0.00 0.00 0.00 0.00 0.01 0.02 0.00 0.00 0.00 0.01 0.02 0.02 0.02 0.02 0.02 0.02 0.02 0.03 0.04 0.05 0.05 0.06 0.06 0.05 0.04 0.06 0.05 0.04 0.02 0.01 0.00 0.00 0.00 0.00 0.00 0.00 0.00 0.00 0.00 0.00 0.00 0.00 0.00 0.00 0.00
0.00 0.00 0.00 0.00 0.00 0.00 0.00 0.00 0.00 0.00 0.00 0.00 0.00 0.00 0.00 0.00 0.00 0.01 0.01 0.02 0.02 0.02 0.02 0.01 0.01 0.01 0.02 0.03 0.03 0.04 0.05 0.05 0.04 0.03 0.04 0.01 0.00 0.00 0.00 0.00 0.00 0.01 0.00 0.00 0.00 0.00 0.00 0.00 0.00 0.00 0.00 0.00 0.00 0.00
0.00 0.00 0.00 0.00 0.00 0.00 0.00 0.00 0.00 0.00 0.00 0.00 0.00 0.00 0.00 0.00 0.00 0.01 0.02 0.01 0.01 0.03 0.02 0.01 0.01 0.01 0.01 0.02 0.01 0.01 0.01 0.01 0.01 0.01 0.00 0.00 0.00 0.00 0.00 0.00 0.00 0.01 0.00 0.00 0.00 0.00 0.00 0.00 0.00 0.00 0.00 0.00 0.00 0.00
0.00 0.00 0.00 0.00 0.00 0.00 0.00 0.00 0.00 0.00 0.00 0.00 0.00 0.00 0.00 0.00 0.01 0.01 0.01 0.01 0.01 0.01 0.01 0.02 0.02 0.02 0.02 0.01 0.01 0.00 0.00 0.00 0.00 0.00 0.00 0.00 0.00 0.00 0.00 0.00 0.00 0.00 0.00 0.00 0.00 0.00 0.00 0.00 0.00 0.00 0.00 0.00 0.00 0.00
0.00 0.00 0.00 0.00 0.00 0.00 0.00 0.00 0.00 0.00 0.00 0.00 0.00 0.00 0.00 0.02 0.01 0.00 0.01 0.01 0.01 0.01 0.01 0.01 0.02 0.01 0.01 0.01 0.01 0.00 0.00 0.00 0.00 0.00 0.00 0.00 0.00 0.00 0.00 0.00 0.00 0.00 0.00 0.00 0.00 0.00 0.00 0.00 0.00 0.00 0.00 0.00 0.00 0.00
0.00 0.00 0.00 0.00 0.00 0.00 0.01 0.00 0.00 0.00 0.00 0.00 0.00 0.00 0.00 0.02 0.03 0.02 0.02 0.01 0.01 0.01 0.01 0.01 0.01 0.00 0.00 0.00 0.00 0.00 0.00 0.00 0.00 0.00 0.00 0.00 0.00 0.00 0.00 0.00 0.00 0.00 0.00 0.00 0.00 0.00 0.00 0.00 0.00 0.00 0.00 0.00 0.00 0.00
0.00 0.00 0.00 0.00 0.00 0.00 0.00 0.00 0.00 0.00 0.00 0.00 0.00 0.00 0.00 0.01 0.01 0.01 0.01 0.01 0.00 0.00 0.00 0.01 0.01 0.01 0.00 0.00 0.00 0.00 0.00 0.00 0.00 0.00 0.00 0.00 0.00 0.00 0.00 0.00 0.00 0.00 0.00 0.00 0.00 0.00 0.00 0.00 0.00 0.00 0.00 0.00 0.00 0.00
0.00 0.00 0.00 0.00 0.00 0.00 0.00 0.01 0.00 0.00 0.00 0.00 0.00 0.00 0.00 0.00 0.00 0.00 0.00 0.01 0.01 0.01 0.01 0.00 0.00 0.00 0.00 0.00 0.00 0.00 0.00 0.00 0.00 0.00 0.00 0.00 0.00 0.00 0.00 0.00 0.00 0.00 0.00 0.00 0.00 0.00 0.00 0.00 0.00 0.00 0.00 0.00 0.00 0.00
0.00 0.00 0.00 0.00 0.00 0.00 0.00 0.00 0.00 0.00 0.00 0.00 0.00 0.00 0.00 0.00 0.00 0.00 0.01 0.01 0.00 0.00 0.00 0.00 0.00 0.00 0.00 0.00 0.00 0.00 0.00 0.00 0.00 0.00 0.00 0.00 0.00 0.00 0.00 0.00 0.00 0.00 0.00 0.00 0.00 0.00 0.00 0.00 0.00 0.00 0.00 0.00 0.00 0.00
MSLP
996.62 996.31 996.06 995.82 995.62 995.48 995.34 995.29 995.38 995.61 996.01 996.57 997.26 998.05 998.93 999.84 1000.80 1001.95 1002.32 1003.08 1004.00 1004.13 1004.30 1003.95 1004.13 1004.64 1005.30 1005.67 1006.16 1006.03 1006.54 1006.20 1007.11 1007.90 1008.39 1008.31 1007.59 1006.50 1005.90 1005.12 1005.10 1006.33 1005.88 1005.64 1005.53 1004.84 1003.34 1001.17 999.77 999.49 999.21 998.38 998.17 997.78
995.35 995.00 994.69 994.34 993.89 993.50 993.25 993.11 993.12 993.35 993.83 994.52 995.40 996.37 997.42 998.50 999.62 1001.02 1001.87 1002.30 1002.98 1003.79 1003.69 1003.24 1003.04 1003.03 1003.51 1004.17 1005.12 1005.27 1005.46 1005.29 1005.95 1006.51 1007.31 1007.28 1007.20 1006.18 1005.35 1004.94 1004.65 1004.86 1004.87 1004.50 1004.20 1003.40 1002.22 1001.43 1000.64 1000.33 999.60 998.82 998.36 997.89
994.12 993.62 993.07 992.48 991.85 991.34 991.04 990.90 990.94 991.19 991.70 992.46 993.38 994.44 995.69 997.10 998.48 999.97 1000.96 1001.95 1002.40 1002.95 1003.40 1003.33 1002.29 1002.38 1002.76 1003.31 1003.52 1004.38 1004.82 1004.83 1005.23 1005.50 1005.96 1006.39 1006.43 1006.20 1005.84 1004.63 1004.24 1003.46 1003.30 1003.65 1003.37 1002.31 1001.60 1000.77 1000.34 999.99 999.72 999.62 999.09 998.26
992.79 992.15 991.42 990.72 990.06 989.45 988.94 988.56 988.51 988.82 989.52 990.56 991.78 992.85 994.20 995.80 997.45 999.22 1000.20 1001.00 1001.87 1002.56 1002.61 1002.00 1001.86 1001.54 1001.96 1002.77 1003.13 1003.47 1003.99 1004.33 1004.87 1005.36 1006.00 1005.80 1006.08 1005.34 1005.33 1004.38 1003.51 1002.85 1002.97 1002.83 1002.62 1001.83 1001.29 1000.44 999.86 999.46 999.62 999.83 999.55 998.90
991.55 990.81 990.16 989.46 988.80 988.11 987.34 986.40 985.64 985.88 987.17 988.73 990.31 991.79 993.24 994.76 996.61 998.72 1000.04 1000.68 1001.37 1001.72 1001.45 1001.60 1001.78 1001.55 1001.84 1002.64 1002.95 1003.34 1003.88 1004.32 1005.11 1005.82 1006.04 1006.14 1005.43 1005.04 1004.64 1004.54 1003.24 1002.28 1002.23 1002.58 1001.67 1000.42 1000.46 999.99 999.31 999.00 999.53 999.75 999.49 999.13
990.47 989.94 989.37 988.78 988.13 987.41 986.62 985.30 983.64 983.11 985.44 987.54 989.33 991.07 992.75 994.43 996.25 997.95 999.91 1000.84 1001.02 1001.22 1001.47 1001.43 1001.02 1001.11 1001.55 1002.30 1002.88 1003.39 1003.68 1004.12 1004.85 1005.81 1005.90 1005.82 1005.49 1005.14 1005.13 1004.71 1003.10 1001.84 1001.16 1000.87 1000.69 999.82 999.90 999.56 999.75 999.54 999.87 1000.09 1000.13 1000.24
989.96 989.61 989.09 988.52 988.08 987.50 986.84 985.90 985.09 985.03 986.11 987.46 989.05 990.95 992.80 994.47 996.08 997.24 998.04 998.33 1000.06 1001.12 1000.31 1001.04 1001.09 1001.28 1001.25 1002.05 1003.01 1003.72 1003.81 1004.14 1004.54 1005.63 1005.86 1005.58 1005.33 1005.10 1005.37 1004.26 1002.70 1001.81 1001.48 1000.95 999.73 999.93 1000.20 999.81 1000.06 1000.75 1000.64 1001.09 1001.54 1001.98
990.29 989.79 989.27 988.80 988.45 988.03 987.60 987.28 986.67 986.90 987.38 987.91 989.54 991.49 993.47 995.05 996.70 997.24 997.48 997.90 999.77 1000.81 1000.63 1001.22 1001.79 1002.07 1002.24 1002.67 1003.61 1003.76 1004.33 1004.57 1004.74 1005.13 1005.23 1005.29 1005.43 1005.22 1004.74 1003.38 1003.02 1002.71 1001.52 1001.53 1000.62 999.82 999.75 1000.23 1000.71 1001.68 1002.03 1002.44 1003.23 1004.43
991.01 990.47 989.85 989.43 989.19 988.96 988.84 988.78 988.78 989.15 989.68 990.46 991.61 993.00 994.53 996.20 996.92 997.38 998.27 999.00 999.81 999.65 999.81 1001.18 1001.91 1002.62 1002.72 1003.27 1003.71 1004.40 1004.48 1005.16 1005.05 1005.19 1004.88 1004.80 1004.98 1004.15 1003.18 1003.37 1003.21 1002.45 1002.48 1001.20 1001.01 1000.57 1001.02 1001.42 1001.94 1002.62 1003.43 1004.56 1005.23 1006.68
991.96 991.49 991.02 990.45 990.34 990.33 990.43 990.50 990.66 991.23 991.89 992.67 993.68 994.89 996.40 997.17 997.38 997.81 999.00 999.39 999.48 999.74 1000.32 1001.42 1002.07 1002.65 1002.88 1003.38 1004.35 1004.83 1004.81 1005.05 1005.09 1004.70 1004.05 1004.19 1003.59 1003.03 1003.07 1003.55 1003.52 1004.24 1003.35 1001.39 1001.64 1001.99 1002.35 1003.44 1003.95 1004.65 1005.69 1006.64 1007.35 1008.36
993.22 992.82 992.49 992.15 991.94 991.85 991.96 992.18 992.29 992.63 992.89 993.69 994.79 995.77 996.20 996.85 997.75 998.67 999.34 999.90 1000.21 1000.49 1000.76 1001.50 1002.02 1002.49 1003.18 1003.48 1004.21 1004.41 1004.72 1004.67 1004.65 1003.80 1003.94 1004.11 1003.63 1003.20 1003.50 1003.60 1003.56 1005.01 1004.81 1003.10 1001.83 1002.08 1003.08 1004.28 1005.50 1006.46 1007.62 1008.24 1009.13 1010.15
994.43 994.09 993.92 993.87 993.85 993.84 993.65 993.20 993.53 993.85 993.74 993.97 994.69 996.13 996.53 997.27 997.93 998.81 999.76 999.86 1000.09 1000.89 1001.33 1001.68 1002.25 1002.58 1003.38 1003.46 1003.93 1004.47 1004.16 1004.19 1003.41 1002.96 1003.94 1004.16 1004.48 1004.69 1004.79 1005.03 1004.79 1006.33 1005.48 1005.12 1004.73 1004.72 1005.97 1006.88 1007.54 1008.11 1009.06 1009.88 1010.70 1011.45
995.12 994.96 994.53 994.56 994.48 994.54 994.66 994.56 994.56 994.40 994.28 994.46 995.17 996.57 997.35 998.52 999.56 1000.30 1001.03 1001.24 1001.20 1001.22 1001.47 1001.79 1002.56 1003.00 1003.61 1003.65 1003.91 1003.94 1003.75 1003.45 1002.63 1003.28 1004.00 1005.16 1005.83 1006.28 1006.22 1006.17 1006.28 1007.52 1006.50 1006.39 1006.76 1007.46 1008.30 1009.03 1009.63 1009.89 1010.71 1011.56 1012.12 1012.91
995.93 995.63 995.47 995.43 995.46 995.25 994.92 994.68 994.52 994.21 994.91 996.43 997.82 999.65 1000.58 1001.74 1002.33 1002.68 1002.40 1002.01 1002.25 1001.78 1001.74 1001.90 1002.49 1002.80 1003.26 1003.67 1003.72 1003.60 1002.93 1002.64 1003.05 1003.78 1005.39 1006.68 1007.43 1007.44 1007.33 1007.09 1007.12 1008.29 1007.93 1008.10 1008.56 1009.25 1010.03 1010.77 1011.41 1011.98 1012.42 1013.06 1013.57 1014.38
996.79 996.53 996.29 996.32 996.16 996.06 995.69 995.17 994.81 995.09 997.06 999.11 1000.24 1002.37 1003.43 1004.13 1004.17 1003.99 1003.50 1003.04 1003.11 1002.68 1002.26 1002.25 1002.50 1002.75 1003.29 1003.63 1003.51 1003.46 1003.38 1003.94 1005.14 1006.25 1007.11 1007.96 1008.18 1008.09 1008.20 1008.73 1008.82 1009.04 1009.25 1009.86 1010.52 1010.91 1011.55 1012.25 1012.84 1013.50 1014.09 1014.58 1015.21 1015.89
997.09 996.96 997.43 997.22 996.68 996.42 996.19 995.98 996.20 996.89 999.57 1001.82 1003.76 1004.65 1005.14 1005.15 1005.42 1005.08 1004.80 1004.54 1004.27 1003.72 1002.98 1002.81 1002.82 1003.10 1003.60 1004.37 1004.82 1005.41 1005.75 1006.77 1007.66 1008.02 1008.62 1009.00 1009.29 1009.53 1009.74 1009.88 1010.21 1010.55 1010.94 1011.48 1012.09 1012.59 1013.11 1013.67 1014.31 1014.96 1015.51 1016.10 1016.91 1017.51
997.53 998.22 998.00 997.41 997.07 996.68 996.33 996.86 998.34 1000.63 1002.69 1004.64 1006.62 1006.87 1007.06 1007.13 1007.23 1006.93 1006.51 1005.90 1005.14 1004.42 1004.04 1003.87 1004.46 1005.23 1005.30 1006.24 1007.37 1007.99 1008.55 1008.89 1009.11 1009.46 1009.94 1010.22 1010.58 1010.89 1011.14 1011.49 1011.74 1012.15 1012.62 1013.20 1013.64 1014.12 1014.63 1015.26 1015.78 1016.29 1016.96 1018.04 1018.46 1019.15
998.63 998.72 997.98 997.50 997.40 997.50 998.18 999.04 1001.15 1003.59 1005.87 1007.16 1007.74 1008.27 1008.53 1008.82 1008.71 1008.34 1007.81 1007.01 1005.98 1005.46 1005.67 1006.69 1007.03 1007.84 1008.98 1009.42 1010.11 1010.25 1010.41 1010.57 1010.72 1010.88 1011.31 1011.56 1011.81 1012.23 1012.41 1012.66 1013.20 1013.64 1014.04 1014.56 1015.00 1015.54 1016.08 1016.63 1017.13 1018.13 1018.87 1019.53 1019.88 1020.64
999.19 998.79 998.28 997.87 997.82 998.53 1000.17 1001.96 1002.93 1005.80 1007.62 1008.17 1008.84 1009.07 1009.16 1009.70 1009.87 1009.73 1009.03 1008.10 1007.39 1007.24 1007.72 1009.33 1010.80 1011.87 1012.45 1012.50 1012.34 1011.85 1011.90 1011.99 1012.30 1012.88 1013.17 1013.35 1013.46 1013.78 1014.14 1014.36 1014.65 1015.09 1015.41 1015.92 1016.46 1017.11 1017.72 1018.17 1018.74 1019.50 1020.17 1020.68 1021.27 1022.27
999.14 998.90 998.61 998.46 998.27 999.67 1001.88 1003.58 1004.08 1006.07 1007.90 1009.05 1009.74 1010.37 1010.75 1011.28 1010.98 1010.59 1010.15 1009.65 1009.12 1009.48 1011.41 1013.24 1014.68 1015.03 1014.70 1014.24 1013.72 1013.33 1013.20 1013.40 1013.51 1014.02 1014.77 1015.18 1015.38 1015.34 1015.65 1015.95 1016.35 1016.75 1017.16 1017.80 1018.34 1018.92 1019.51 1020.13 1020.83 1021.27 1021.71 1022.31 1022.92 1023.76
999.57 999.57 998.97 998.80 999.57 1000.92 1003.04 1004.32 1005.60 1006.88 1008.03 1008.92 1009.73 1010.18 1011.11 1011.26 1011.51 1011.60 1011.43 1011.46 1011.50 1014.02 1015.71 1016.56 1016.55 1016.40 1015.93 1015.08 1014.47 1014.34 1014.56 1014.62 1015.01 1015.35 1016.12 1016.66 1017.22 1017.31 1017.51 1017.87 1018.14 1018.47 1018.91 1019.59 1020.05 1020.85 1021.30 1021.97 1022.61 1023.04 1023.33 1023.92 1024.54 1025.18
1000.64 1000.23 1000.12 1000.18 1001.46 1002.76 1004.22 1005.24 1006.01 1006.95 1007.80 1008.88 1009.53 1010.30 1011.34 1012.22 1012.86 1013.22 1013.71 1013.94 1016.31 1017.68 1017.88 1018.00 1017.78 1017.44 1017.03 1016.73 1016.58 1016.43 1016.56 1016.46 1016.85 1017.19 1017.64 1018.04 1018.60 1019.03 1019.44 1019.81 1020.01 1020.43 1020.85 1021.27 1021.74 1022.33 1023.04 1023.62 1023.97 1024.32 1024.75 1025.41 1025.88 1026.59
1001.11 1001.28 1002.07 1002.73 1003.79 1005.00 1006.40 1006.04 1006.48 1007.38 1008.09 1009.21 1010.18 1010.99 1012.18 1013.28 1014.14 1014.52 1016.15 1017.72 1018.59 1019.14 1019.13 1019.08 1018.99 1018.77 1018.57 1018.56 1018.31 1018.29 1018.31 1018.23 1018.64 1019.07 1019.37 1019.76 1020.14 1020.65 1020.99 1021.34 1021.65 1021.80 1022.23 1023.05 1023.45 1023.81 1024.18 1024.65 1025.12 1025.60 1026.14 1026.73 1027.39 1028.13
1002.24 1004.00 1005.20 1006.19 1006.63 1007.83 1007.82 1008.37 1008.58 1009.27 1009.84 1010.59 1011.37 1012.32 1013.08 1014.26 1015.23 1016.84 1018.59 1019.68 1020.31 1020.16 1019.96 1019.96 1019.89 1019.86 1019.91 1020.00 1020.14 1020.23 1020.30 1020.23 1020.32 1020.68 1021.10 1021.25 1021.57 1022.21 1022.45 1022.79 1023.17 1023.46 1023.84 1024.25 1024.62 1025.01 1025.47 1025.99 1026.38 1026.92 1027.53 1028.16 1028.77 1029.43
1004.91 1008.37 1008.78 1009.39 1009.37 1009.61 1010.43 1011.23 1011.89 1012.22 1013.45 1013.56 1014.12 1014.53 1014.87 1015.36 1017.09 1018.92 1020.30 1021.12 1021.26 1021.37 1021.44 1021.42 1021.35 1021.35 1021.51 1021.72 1021.77 1021.84 1021.93 1021.80 1021.95 1022.18 1022.83 1022.96 1023.06 1023.43 1023.93 1024.29 1024.54 1024.81 1025.05 1025.37 1025.98 1026.41 1026.94 1027.28 1027.74 1028.26 1028.74 1029.22 1029.80 1030.45
1009.34 1011.43 1011.65 1012.12 1012.37 1012.50 1013.18 1014.22 1014.71 1015.26 1015.42 1015.81 1016.32 1016.54 1016.96 1018.47 1020.30 1021.48 1022.19 1022.63 1022.64 1022.58 1022.63 1022.66 1022.70 1022.80 1023.01 1023.17 1023.22 1023.34 1023.60 1023.54 1023.56 1023.80 1024.42 1024.25 1024.36 1024.57 1025.01 1025.41 1025.84 1026.38 1026.42 1026.54 1026.90 1027.45 1028.02 1028.48 1028.95 1029.47 1030.05 1030.41 1030.75 1031.30
1012.77 1013.75 1014.08 1014.36 1014.36 1014.50 1015.88 1016.60 1017.12 1017.69 1018.16 1018.63 1018.78 1018.93 1019.53 1021.41 1022.38 1023.04 1023.35 1023.59 1023.66 1023.68 1023.63 1023.68 1023.79 1024.00 1024.30 1024.55 1024.74 1024.90 1025.06 1025.07 1025.19 1025.61 1025.85 1025.84 1025.99 1026.14 1026.38 1026.81 1027.23 1027.62 1027.50 1027.56 1027.83 1028.21 1028.78 1029.34 1029.91 1030.44 1030.97 1031.42 1031.89 1032.18
1014.62 1015.66 1016.52 1017.27 1017.32 1017.73 1018.62 1019.65 1020.26 1020.71 1020.68 1020.53 1020.62 1022.02 1022.70 1023.07 1023.91 1023.99 1024.00 1024.31 1024.33 1024.39 1024.51 1024.68 1024.86 1025.07 1025.33 1025.67 1025.78 1025.93 1026.17 1026.33 1026.47 1026.63 1026.84 1027.20 1027.55 1027.77 1027.94 1028.13 1028.31 1028.22 1028.64 1028.79 1028.84 1029.00 1029.27 1029.76 1030.51 1031.30 1031.78 1032.10 1032.49 1032.20
1016.33 1017.30 1018.14 1019.77 1019.80 1020.49 1021.26 1022.04 1022.58 1022.38 1022.20 1021.92 1022.80 1023.64 1024.02 1024.17 1024.31 1024.37 1024.56 1024.63 1024.79 1025.00 1025.27 1025.55 1025.97 1026.17 1026.48 1026.75 1026.86 1026.98 1027.03 1027.09 1027.27 1027.74 1028.23 1028.81 1029.16 1029.48 1029.23 1029.23 1029.46 1029.63 1029.80 1029.91 1029.38 1029.92 1029.79 1029.76 1030.28 1031.21 1031.81 1032.08 1032.18 1032.49
1018.06 1018.41 1019.98 1021.41 1022.50 1023.31 1023.27 1023.09 1023.42 1023.21 1022.86 1022.99 1023.54 1024.60 1025.13 1025.46 1025.23 1024.72 1025.02 1025.25 1025.51 1025.78 1026.00 1026.26 1026.56 1026.85 1027.43 1027.67 1028.04 1028.11 1028.02 1027.87 1027.75 1028.38 1029.11 1029.74 1029.92 1030.07 1029.99 1030.18 1030.46 1030.78 1030.82 1030.81 1030.46 1030.13 1029.86 1030.39 1030.41 1031.39 1032.51 1032.61 1033.01 1033.56
1018.33 1019.65 1021.55 1023.05 1024.17 1024.31 1024.01 1023.93 1023.69 1023.88 1024.42 1024.85 1025.58 1026.18 1026.59 1026.56 1026.34 1026.25 1026.26 1026.25 1026.26 1026.45 1026.80 1027.31 1027.71 1027.96 1028.27 1028.72 1028.91 1028.96 1029.32 1029.39 1029.15 1029.19 1029.44 1029.95 1030.32 1030.59 1030.80 1030.99 1030.96 1031.21 1031.55 1031.41 1031.22 1031.21 1031.33 1031.71 1032.21 1032.64 1033.21 1033.45 1033.76 1033.97
1020.11 1021.52 1022.87 1024.67 1025.03 1024.51 1024.21 1024.50 1024.91 1025.45 1026.31 1026.56 1027.22 1026.97 1027.34 1027.53 1027.70 1027.43 1027.16 1026.86 1026.91 1027.39 1027.87 1028.26 1028.71 1029.26 1029.27 1029.25 1029.29 1029.45 1029.77 1030.20 1030.45 1030.68 1030.65 1030.92 1031.18 1031.28 1031.11 1031.05 1031.27 1031.42 1031.99 1031.83 1031.78 1031.79 1032.04 1032.95 1033.06 1033.28 1033.56 1033.75 1033.86 1034.01
1021.65 1022.21 1023.13 1024.53 1025.05 1025.16 1024.95 1024.94 1025.51 1026.27 1026.73 1027.59 1027.78 1027.70 1028.02 1028.07 1028.39 1028.23 1027.59 1027.32 1027.45 1027.94 1028.60 1029.16 1029.42 1029.69 1029.90 1029.80 1029.94 1030.29 1030.81 1031.05 1030.90 1030.47 1030.87 1031.06 1031.11 1031.10 1031.48 1031.64 1031.73 1031.89 1032.26 1032.21 1032.25 1032.27 1032.57 1033.20 1033.47 1033.61 1033.72 1033.86 1034.08 1034.27
Thickness
5373 5373 5374 5374 5376 5377 5379 5382 5385 5388 5391 5394 5397 5398 5400 5401 5401 5398 5408 5408 5410 5419 5426 5440 5448 5447 5450 5456 5452 5465 5465 5468 5458 5452 5456 5457 5450 5502 5516 5536 5536 5514 5516 5528 5527 5533 5546 5587 5605 5604 5609 5624 5635 5646
5367 5368 5370 5372 5376 5379 5381 5383 5385 5386 5386 5386 5388 5389 5391 5392 5392 5389 5392 5402 5408 5409 5422 5434 5446 5454 5458 5462 5455 5460 5467 5478 5470 5464 5455 5461 5461 5467 5510 5515 5532 5521 5526 5533 5541 5544 5568 5579 5591 5595 5603 5613 5626 5633
5368 5371 5374 5377 5381 5383 5383 5383 5383 5384 5385 5386 5387 5387 5387 5385 5382 5381 5386 5392 5396 5403 5409 5416 5439 5452 5455 5458 5463 5456 5459 5476 5471 5471 5466 5471 5478 5480 5476 5512 5525 5536 5539 5535 5539 5560 5566 5578 5585 5593 5599 5601 5609 5624
5372 5375 5379 5381 5382 5383 5384 5384 5382 5381 5382 5382 5383 5387 5388 5385 5381 5376 5379 5387 5389 5390 5401 5421 5437 5448 5454 5451 5456 5461 5466 5468 5470 5467 5469 5467 5460 5490 5486 5510 5518 5531 5533 5538 5538 5553 5560 5573 5584 5591 5593 5596 5602 5613
5376 5378 5379 5380 5381 5381 5381 5383 5380 5375 5375 5380 5381 5382 5384 5384 5381 5375 5378 5380 5385 5398 5404 5414 5427 5440 5443 5443 5450 5455 5459 5460 5456 5459 5453 5461 5473 5485 5483 5481 5503 5534 5534 5526 5532 5560 5560 5570 5584 5588 5587 5591 5598 5607
5379 5378 5379 5380 5380 5379 5379 5380 5377 5372 5368 5374 5381 5380 5377 5377 5373 5374 5368 5370 5383 5396 5408 5412 5429 5435 5438 5442 5444 5448 5454 5456 5455 5448 5450 5458 5466 5471 5459 5474 5511 5531 5539 5544 5549 5562 5562 5572 5573 5579 5577 5581 5583 5587
5380 5378 5380 5381 5377 5376 5375 5376 5374 5371 5370 5376 5382 5378 5375 5372 5373 5375 5383 5398 5392 5394 5411 5413 5419 5428 5439 5439 5437 5437 5444 5450 5453 5446 5444 5453 5459 5457 5447 5467 5510 5522 5529 5538 5551 5554 5556 5566 5565 5562 5566 5564 5563 5562
5379 5378 5379 5380 5378 5377 5375 5374 5377 5376 5378 5384 5383 5377 5373 5371 5372 5378 5390 5397 5394 5399 5407 5408 5412 5419 5422 5424 5428 5431 5433 5437 5442 5441 5439 5447 5449 5448 5456 5486 5497 5506 5521 5525 5538 5551 5555 5555 5553 5547 5547 5546 5534 5524
5380 5379 5380 5380 5378 5378 5378 5377 5378 5377 5376 5376 5374 5373 5372 5368 5373 5379 5383 5391 5395 5407 5407 5393 5406 5420 5416 5418 5420 5421 5424 5428 5429 5417 5438 5443 5444 5450 5484 5485 5488 5496 5504 5530 5531 5537 5538 5541 5540 5536 5528 5518 5511 5499
5379 5379 5379 5380 5379 5377 5376 5377 5378 5374 5371 5368 5368 5366 5357 5365 5375 5380 5384 5388 5398 5404 5406 5394 5402 5417 5417 5411 5409 5412 5407 5408 5430 5433 5444 5433 5447 5480 5474 5472 5475 5473 5485 5518 5518 5519 5521 5516 5509 5504 5497 5491 5486 5479
5377 5377 5378 5378 5378 5377 5378 5378 5379 5379 5379 5375 5370 5364 5376 5379 5382 5384 5386 5389 5396 5401 5405 5404 5407 5411 5410 5413 5411 5406 5420 5423 5425 5434 5440 5444 5456 5469 5464 5468 5470 5462 5465 5486 5509 5511 5508 5498 5486 5478 5470 5468 5464 5458
5376 5377 5376 5375 5375 5374 5376 5382 5381 5382 5385 5389 5388 5384 5386 5389 5390 5392 5381 5395 5402 5404 5400 5403 5410 5408 5404 5409 5401 5402 5425 5421 5428 5437 5434 5448 5437 5434 5441 5443 5454 5445 5455 5462 5470 5475 5469 5465 5462 5460 5454 5450 5445 5440
5378 5379 5382 5381 5382 5382 5382 5384 5386 5391 5395 5398 5397 5390 5394 5386 5383 5375 5378 5396 5402 5398 5406 5405 5407 5402 5403 5411 5407 5412 5426 5429 5438 5439 5444 5421 5418 5418 5426 5432 5436 5431 5442 5447 5446 5445 5442 5439 5438 5439 5435 5430 5427 5422
5378 5381 5383 5384 5385 5388 5392 5395 5398 5403 5401 5392 5382 5363 5360 5364 5371 5370 5386 5398 5389 5398 5400 5397 5405 5410 5406 5406 5410 5425 5434 5437 5449 5445 5417 5400 5398 5406 5415 5420 5423 5416 5426 5429 5427 5424 5420 5418 5417 5415 5413 5410 5407 5401
5378 5381 5384 5385 5387 5390 5394 5400 5406 5407 5392 5376 5377 5360 5361 5355 5355 5360 5368 5381 5378 5384 5397 5401 5409 5412 5409 5413 5416 5426 5437 5423 5405 5396 5396 5392 5396 5403 5404 5404 5406 5407 5409 5407 5404 5404 5402 5401 5398 5395 5391 5389 5384 5379
5381 5384 5382 5384 5390 5394 5398 5401 5402 5400 5379 5364 5350 5351 5349 5355 5347 5354 5358 5366 5370 5375 5388 5400 5417 5420 5419 5404 5403 5396 5405 5385 5376 5381 5379 5379 5379 5380 5381 5385 5388 5390 5390 5387 5386 5385 5384 5381 5378 5374 5371 5367 5361 5356
5384 5378 5383 5389 5393 5398 5403 5400 5390 5371 5361 5350 5331 5333 5332 5341 5342 5346 5349 5358 5367 5381 5402 5405 5395 5391 5399 5391 5383 5375 5369 5369 5371 5369 5369 5369 5368 5368 5369 5369 5372 5372 5371 5370 5369 5367 5365 5362 5359 5357 5352 5344 5341 5335
5377 5379 5387 5393 5396 5396 5391 5385 5368 5352 5335 5328 5329 5328 5325 5322 5331 5337 5342 5353 5367 5380 5384 5375 5373 5364 5347 5363 5349 5355 5351 5351 5356 5358 5357 5356 5356 5354 5356 5357 5357 5356 5356 5354 5353 5350 5348 5345 5342 5333 5327 5323 5321 5315
5382 5385 5390 5394 5395 5388 5375 5362 5357 5332 5323 5321 5318 5319 5325 5321 5324 5328 5334 5346 5358 5362 5363 5349 5329 5325 5324 5327 5330 5340 5341 5342 5341 5338 5337 5337 5340 5340 5338 5339 5339 5338 5339 5337 5334 5330 5327 5325 5321 5314 5309 5306 5301 5293
5387 5389 5391 5394 5396 5384 5368 5352 5352 5336 5322 5317 5314 5312 5310 5307 5314 5317 5329 5337 5348 5345 5324 5311 5302 5302 5307 5311 5318 5329 5334 5333 5334 5330 5324 5322 5322 5324 5324 5323 5321 5320 5318 5314 5312 5308 5304 5300 5295 5292 5289 5284 5277 5270
5389 5388 5393 5395 5390 5380 5365 5356 5343 5334 5330 5325 5320 5321 5312 5313 5314 5316 5320 5326 5324 5305 5295 5291 5291 5294 5299 5307 5316 5319 5318 5320 5318 5317 5311 5306 5302 5303 5303 5302 5301 5300 5298 5294 5291 5285 5282 5276 5271 5268 5265 5260 5255 5249
5387 5391 5390 5391 5380 5371 5362 5353 5350 5345 5339 5332 5329 5325 5313 5308 5296 5304 5310 5307 5288 5280 5282 5283 5285 5288 5291 5293 5296 5298 5299 5300 5297 5295 5291 5290 5286 5284 5282 5280 5279 5277 5275 5273 5271 5266 5260 5255 5252 5249 5244 5238 5233 5227
5391 5389 5380 5377 5370 5362 5349 5355 5357 5352 5350 5341 5332 5329 5319 5307 5304 5307 5287 5280 5275 5270 5271 5272 5272 5275 5277 5277 5280 5280 5281 5281 5277 5274 5272 5270 5268 5266 5263 5262 5259 5259 5256 5251 5249 5246 5242 5239 5234 5228 5222 5216 5210 5202
5387 5369 5360 5353 5360 5344 5340 5340 5347 5342 5334 5332 5329 5319 5319 5304 5301 5283 5269 5264 5258 5260 5263 5262 5263 5263 5262 5261 5259 5260 5260 5260 5260 5257 5254 5254 5252 5248 5246 5244 5242 5240 5237 5233 5230 5226 5221 5215 5212 5207 5201 5193 5186 5179
5362 5336 5338 5326 5332 5339 5325 5309 5310 5313 5294 5300 5300 5301 5310 5302 5281 5266 5254 5249 5248 5244 5244 5244 5245 5245 5245 5243 5242 5241 5241 5242 5242 5240 5235 5235 5234 5232 5228 5224 5222 5220 5217 5214 5208 5204 5199 5195 5190 5184 5179 5174 5168 5159
5329 5318 5318 5315 5314 5314 5314 5303 5299 5289 5287 5291 5286 5294 5274 5254 5237 5239 5240 5232 5231 5232 5229 5228 5227 5226 5223 5223 5223 5222 5219 5220 5220 5218 5213 5218 5217 5215 5211 5208 5204 5198 5197 5195 5191 5185 5180 5174 5171 5166 5159 5154 5148 5142
5302 5289 5304 5309 5309 5310 5282 5274 5279 5262 5255 5257 5260 5244 5239 5220 5219 5226 5223 5219 5218 5216 5215 5214 5212 5210 5207 5204 5202 5200 5199 5198 5198 5195 5193 5193 5192 5191 5189 5186 5181 5177 5178 5176 5172 5168 5163 5157 5150 5145 5138 5131 5126 5123
5294 5290 5270 5266 5268 5273 5246 5240 5238 5236 5235 5252 5242 5214 5204 5200 5206 5208 5205 5201 5199 5198 5196 5194 5191 5189 5187 5184 5182 5181 5178 5177 5176 5175 5174 5171 5169 5167 5165 5163 5162 5160 5158 5157 5154 5150 5145 5140 5135 5127 5122 5117 5113 5108
5277 5274 5267 5240 5243 5240 5245 5222 5221 5229 5230 5230 5203 5196 5200 5206 5193 5190 5188 5185 5181 5178 5174 5171 5167 5165 5162 5160 5159 5158 5158 5159 5159 5152 5150 5146 5142 5143 5144 5145 5144 5142 5141 5139 5137 5134 5131 5125 5120 5116 5110 5106 5102 5096
5265 5262 5242 5219 5218 5218 5215 5215 5211 5203 5214 5209 5208 5199 5188 5179 5178 5177 5172 5167 5162 5157 5155 5153 5150 5147 5143 5140 5137 5138 5139 5141 5142 5139 5131 5127 5128 5128 5127 5126 5125 5125 5124 5121 5118 5116 5116 5112 5108 5102 5095 5089 5084 5079
5264 5247 5230 5216 5207 5206 5206 5195 5201 5198 5188 5178 5167 5161 5160 5158 5156 5154 5152 5149 5147 5144 5141 5136 5131 5130 5128 5124 5121 5121 5120 5121 5123 5124 5122 5118 5115 5113 5113 5113 5113 5111 5110 5107 5103 5098 5095 5092 5088 5085 5079 5075 5073 5071
5233 5213 5211 5198 5201 5197 5201 5199 5189 5174 5164 5157 5155 5144 5149 5142 5135 5137 5137 5136 5135 5130 5124 5119 5116 5111 5111 5111 5111 5111 5110 5106 5106 5106 5105 5103 5102 5102 5103 5102 5102 5100 5097 5093 5090 5087 5083 5078 5074 5071 5068 5067 5065 5063
5216 5206 5191 5192 5190 5190 5186 5193 5178 5179 5167 5159 5155 5146 5137 5135 5125 5125 5127 5127 5123 5120 5114 5109 5107 5104 5102 5101 5099 5098 5097 5097 5096 5095 5094 5093 5093 5092 5091 5090 5089 5088 5085 5081 5079 5077 5075 5072 5067 5066 5063 5061 5058 5054